Regional Weather Roundup
Issued by NWS Upton, NY

Current Version | Previous Version | Text Only | Print | Product List | Glossary On
Versions: 1 2 3 4 5 6 7 8 9 10 11 12 13 14 15 16 17 18 19 20 21 22 23 24 25 26 27 28 29 30 31 32 33 34 35 36 37 38 39 40 41 42 43 44 45 46 47 48 49 50
000 ASUS41 KOKX 290504 RWROKX REGIONAL WEATHER ROUNDUP NATIONAL WEATHER SERVICE NEW YORK NY 100 AM EDT SAT AUG 29 2015 NOTE: "FAIR" INDICATES FEW OR NO CLOUDS BELOW 12,000 FEET WITH NO SIGNIFICANT WEATHER AND/OR OBSTRUCTIONS TO VISIBILITY. NYZ071-072-176-178-NJZ106-104-290600- NEW YORK CITY METRO AREA CITY SKY/WX TMP DP RH WIND PRES REMARKS CENTRAL PARK CLEAR 70 52 52 N3 30.22F LAGUARDIA APRT PTCLDY 73 56 54 E3 30.19S KENNEDY INTL PTCLDY 70 62 76 SW6 30.20F NEWARK/LIBERTY FAIR 69 54 58 N5 30.19F BRNX BOT. GARD N/A 64 54 68 NE1 30.19S TETERBORO CLEAR 67 53 61 CALM 30.19S $$ NYZ177-179-078>081-290600- LONG ISLAND NEW YORK CITY SKY/WX TMP DP RH WIND PRES REMARKS FARMINGDALE CLEAR 68 60 75 CALM 30.19F ISLIP CLEAR 65 57 75 CALM 30.18F SHIRLEY CLEAR 61 57 87 CALM 30.20F WESTHAMPTON CLEAR 55 51 86 CALM 30.21F MONTAUK POINT N/A 70 62 76 W3 30.20F $$ NYZ052-065-067-290600- HUDSON VALLEY CITY SKY/WX TMP DP RH WIND PRES REMARKS WHITE PLAINS CLEAR 62 55 77 NW3 30.20S NEWBURGH CLEAR 57 55 94 CALM 30.21F MONTGOMERY CLEAR 56 54 93 CALM 30.20S POUGHKEEPSIE CLEAR 60 56 86 CALM 30.19S ALBANY PTCLDY 61 53 75 SW3 30.20R $$ NJZ001-105-106-008-010-013-015-019>022-104-290600- NEW JERSEY CITY SKY/WX TMP DP RH WIND PRES REMARKS NEWARK/LIBERTY FAIR 69 54 58 N5 30.19F TETERBORO CLEAR 67 53 61 CALM 30.19S CALDWELL CLEAR 61 55 81 CALM 30.21S MORRISTOWN CLEAR 54 50 87 CALM 30.21S FOG SOMERVILLE CLEAR 57 54 89 CALM 30.19S SUSSEX CLEAR 54 52 93 CALM 30.22S ANDOVER N/A 55 54 96 CALM 30.22S TRENTON CLEAR 64 56 75 CALM 30.20S MILLVILLE CLEAR 60 57 89 CALM 30.21R ATLANTIC CITY CLEAR 65 59 81 S3 30.20S WRIGHTSTOWN CLEAR 60 58 92 CALM 30.18S TOMS RIVER CLEAR 55 50 82 CALM 30.20F BELMAR CLEAR 64 54 68 CALM 30.20S $$ PAZ047>061-062-071-290600- EASTERN PENNSYLVANIA CITY SKY/WX TMP DP RH WIND PRES REMARKS PHILADELPHIA CLEAR 69 59 70 CALM 30.21R ALLENTOWN CLEAR 60 56 86 CALM 30.21S SCRANTON PTCLDY 60 52 74 VRB6 30.22S $$ CTZ002-004>006-009-010-012-RIZ004-006-007-MAZ004-011-015-290600- SOUTHERN NEW ENGLAND IN CT CITY SKY/WX TMP DP RH WIND PRES REMARKS BRADLEY INTL PTCLDY 62 55 77 CALM 30.18S HARTFORD CLEAR 63 58 83 SE3 30.18F DANBURY CLEAR 56 51 84 SW3 30.22S WTRBRY/OXFORD CLEAR 55 48 76 CALM 30.22S BRIDGEPORT CLEAR 66 56 70 N3 30.19F MERIDEN CLEAR 57 54 89 CALM 30.19F NEW HAVEN CLEAR 60 56 86 N3 30.19F CHESTER NOT AVBL GROTON PTCLDY 65 61 87 NE3 30.18F WILLIMANTIC CLEAR 59 55 87 CALM 30.19F IN RI CITY SKY/WX TMP DP RH WIND PRES REMARKS PROVIDENCE CLEAR 65 56 72 W8 30.19S BLOCK ISLAND CLEAR 66 64 94 W7 30.19F WESTERLY CLEAR 61 57 87 CALM 30.19F IN MA CITY SKY/WX TMP DP RH WIND PRES REMARKS BOSTON PTCLDY 68 57 68 SW5 30.17R WORCESTER CLEAR 61 53 75 NW8 30.20S WESTFIELD CLEAR 56 54 93 CALM 30.19S PROVINCETOWN CLEAR 64 57 77 SW6 30.17S NANTUCKET CLEAR 63 61 93 S6 30.19S $$ ANZ330-335-338-340-345-350-353-355-290600- COASTAL MARINE OBSERVATIONS STATION/POSITION TIME SKY/WX TEMP WIND PRES VSBY WAVE AIR SEA DIR/SP/G HT/PER (UTC) (F) (DEG/KT/KT) (MB) (MI) (FT/S) NY HARB ENTRANCE 0350 74 76 260/ 10/ 12 1022.3 2/11 4S FIRE IS NOT AVBL 20S FIRE ISLAND 0350 74 75 260/ 6/ 8 1022.6 3/11 GREAT SOUTH BAY 0400 74 78 240/ 6/ 12 N/A 23SW MTP 0450 72 73 270/ 8/ 8 1022.1 3/10 HUDSON CANYON NOT AVBL KINGS POINT NOT AVBL EXECUTION ROCKS 0400 73 340/ 4/ 6 N/A CENTRAL LI SOUND NOT AVBL EASTERN LI SOUND 0400 70 70 290/ 6/ 8 N/A ROBBINS REEF NOT AVBL $$ >>>>>>>>>>>>>>>>>>>>>>>>>>>> KEY <<<<<<<<<<<<<<<<<<<<<<<<<<< > < > SKY/WX - SKY CONDITION/PRESENT WEATHER < > TMP - TEMPERATURE IN FAHRENHEIT < > DP - DEWPOINT IN FAHRENHEIT < > RH - RELATIVE HUMIDITY IN PERCENT < > WIND - DIRECTION AND SPEED IN MPH < > PRES - MEAN SEA LEVEL PRESSURE IN INCHES OF HG < > WCI - WIND CHILL INDEX < > VSB - VISIBILITY IN MILES < > HX - HEAT INDEX < > TC - TEMPERATURE IN CELSIUS < > VRB - VARIABLE WIND DIRECTION < > < >>>>>>>>>>>>>>>>>>>>>>>>>>>> KEY <<<<<<<<<<<<<<<<<<<<<<<<<<<

USA.gov is the U.S. government's official web portal to all federal, state and local government web resources and services.